DW9206 Weather Reports


time (UTC)temp
F
wind
direction
speed
knots
gust
knots
rain 1hr
in
rain 24hr
in
rain mn
in
humidity
%
barometer
mb
20260506211517 64 100 0.0 4.3 0.04 0.12 0.12 99 1002.1
20260506211017 64 100 4.3 4.3 0.04 0.12 0.12 99 1002.1
20260506210516 64 109 0.0 0.0 0.04 0.12 0.12 99 1002.1
20260506210046 64 109 0.0 0.0 0.04 0.12 0.12 99 1002.1
20260506205516 64 125 0.0 0.0 0.04 0.12 0.12 97 1002.1
20260506205016 64 125 0.0 0.0 0.04 0.12 0.12 97 1002.1
20260506204517 64 125 0.0 0.0 0.04 0.12 0.12 97 1002.1
20260506204045 64 125 0.0 0.0 0.04 0.12 0.12 97 1002.1
20260506203516 64 125 0.0 0.0 0.00 0.08 0.08 96 1002.1
20260506203015 64 125 0.0 0.0 0.00 0.08 0.08 96 1002.1
20260506202515 64 101 0.0 0.0 0.00 0.08 0.08 96 1002.1
20260506202015 65 73 0.0 0.0 0.00 0.08 0.08 96 1002.1
20260506201014 65 73 0.0 0.0 0.00 0.08 0.08 95 1002.1
20260506200545 65 90 0.0 0.0 0.00 0.08 0.08 95 1002.1
20260506200014 65 98 0.0 0.0 0.00 0.08 0.08 95 1002.1
20260506195544 65 125 0.0 4.3 0.00 0.08 0.08 94 1002.1
20260506195044 65 107 4.3 4.3 0.00 0.08 0.08 94 1002.1
20260506194514 65 113 0.0 0.0 0.00 0.08 0.08 94 1002.1
20260506194013 65 59 0.0 0.0 0.04 0.08 0.08 93 1002.1
20260506193013 65 63 0.0 0.0 0.04 0.08 0.08 91 1002.1
20260506192513 65 63 0.0 0.0 0.04 0.08 0.08 91 1003.1
20260506192043 65 78 0.0 0.0 0.04 0.08 0.08 91 1003.1
20260506191543 65 78 0.0 0.0 0.04 0.08 0.08 91 1003.1
20260506191012 65 79 0.0 0.0 0.04 0.08 0.08 91 1003.1
20260506190542 65 115 0.0 0.0 0.04 0.08 0.08 90 1003.1
20260506190043 65 156 0.0 0.0 0.08 0.08 0.08 90 1003.1
20260506185042 65 109 0.0 5.2 0.08 0.08 0.08 90 1003.1
20260506184512 65 76 5.2 5.2 0.08 0.08 0.08 89 1003.1
20260506184013 65 146 0.0 0.0 0.04 0.04 0.04 89 1003.1
20260506183513 64 148 0.0 0.0 0.04 0.04 0.04 89 1003.1
20260506182543 64 92 0.0 0.0 0.04 0.04 0.04 89 1003.1
20260506182041 65 61 0.0 4.3 0.04 0.04 0.04 88 1003.1
20260506181541 65 168 4.3 4.3 0.04 0.04 0.04 88 1003.1
20260506181042 65 119 0.0 0.0 0.04 0.04 0.04 88 1003.1
20260506180541 65 60 0.0 0.0 0.04 0.04 0.04 87 1003.1
20260506180040 66 157 0.0 0.0 0.00 0.00 0.00 87 1003.1
20260506175542 66 141 0.0 4.3 0.00 0.00 0.00 85 1004.1
20260506175040 66 166 4.3 4.3 0.00 0.00 0.00 85 1004.1
20260506174541 66 127 0.0 0.0 0.00 0.00 0.00 84 1004.1
20260506174042 66 123 0.0 0.0 0.00 0.00 0.00 83 1004.1
20260506173039 66 166 0.0 0.0 0.00 0.00 0.00 79 1004.1
20260506171539 67 189 0.0 5.2 0.00 0.00 0.00 76 1004.1
20260506171041 68 129 5.2 5.2 0.00 0.00 0.00 75 1004.1
20260506170538 68 315 0.0 0.0 0.00 0.00 0.00 73 1004.1
20260506170038 68 106 0.0 0.0 0.00 0.00 0.00 73 1004.1
20260506165540 69 55 0.0 0.0 0.00 0.00 0.00 72 1004.1
20260506165038 69 135 0.0 0.0 0.00 0.00 0.00 72 1004.1
20260506164535 69 169 0.0 4.3 0.00 0.00 0.00 72 1004.1
20260506164037 69 122 4.3 4.3 0.00 0.00 0.00 72 1004.1
20260506163534 69 17 4.3 4.3 0.00 0.00 0.00 72 1004.1
20260506163033 69 14 0.0 0.0 0.00 0.00 0.00 72 1004.1
20260506162537 69 30 0.0 0.0 0.00 0.00 0.00 72 1005.1
20260506162033 69 4 0.0 0.0 0.00 0.00 0.00 72 1005.1
20260506161533 69 346 0.0 0.0 0.00 0.00 0.00 72 1005.1
20260506161036 69 311 0.0 4.3 0.00 0.00 0.00 72 1005.1
20260506160534 70 110 4.3 4.3 0.00 0.00 0.00 72 1005.1
20260506160033 70 140 4.3 4.3 0.00 0.00 0.00 72 1005.1
20260506155535 70 211 0.0 5.2 0.00 0.00 0.00 72 1005.1
20260506154532 70 165 0.0 4.3 0.00 0.00 0.00 71 1005.1
20260506154035 70 159 4.3 4.3 0.00 0.00 0.00 71 1005.1
20260506153032 70 95 0.0 0.0 0.00 0.00 0.00 71 1005.1
20260506152534 70 105 0.0 0.0 0.00 0.00 0.00 71 1005.1
20260506151532 70 108 0.0 4.3 0.00 0.00 0.00 71 1005.1
20260506151033 70 151 4.3 4.3 0.00 0.00 0.00 71 1005.1
20260506150531 71 219 0.0 0.0 0.00 0.00 0.00 70 1005.1
20260506150031 71 219 0.0 4.3 0.00 0.00 0.00 70 1005.1
20260506145533 72 97 4.3 4.3 0.00 0.00 0.00 70 1005.1
20260506144531 73 53 0.0 0.0 0.00 0.00 0.00 69 1005.1
20260506144032 74 209 0.0 4.3 0.00 0.00 0.00 69 1005.1
20260506143530 74 67 4.3 4.3 0.00 0.00 0.00 69 1005.1
20260506142532 75 50 0.0 0.0 0.00 0.00 0.00 70 1005.1
20260506142030 75 162 0.0 4.3 0.00 0.00 0.00 70 1005.1
20260506141530 74 137 4.3 5.2 0.00 0.00 0.00 71 1005.1
20260506141031 73 59 5.2 5.2 0.00 0.00 0.00 71 1005.1
20260506140529 73 85 5.2 5.2 0.00 0.00 0.00 72 1005.1
20260506140030 73 316 4.3 10.4 0.00 0.00 0.00 72 1005.1
20260506135531 73 125 10.4 10.4 0.00 0.00 0.00 72 1005.1
20260506135028 73 160 4.3 4.3 0.00 0.00 0.00 73 1005.1
20260506134528 73 117 4.3 4.3 0.00 0.00 0.00 73 1005.1
20260506134031 73 241 0.0 0.0 0.00 0.00 0.00 73 1005.1
20260506133529 72 56 0.0 0.0 0.00 0.00 0.00 75 1005.1
20260506133028 73 159 0.0 0.0 0.00 0.00 0.00 75 1005.1
20260506132528 73 112 0.0 0.0 0.00 0.00 0.00 75 1005.1
20260506132028 73 87 0.0 0.0 0.00 0.00 0.00 75 1005.1
20260506131528 74 91 0.0 0.0 0.00 0.00 0.00 75 1005.1
20260506131027 75 142 0.0 0.0 0.00 0.00 0.00 75 1005.1
20260506130527 75 76 0.0 7.0 0.00 0.00 0.00 75 1005.1
20260506130028 75 114 7.0 7.0 0.00 0.00 0.00 76 1005.1
20260506125527 74 154 0.0 5.2 0.00 0.00 0.00 76 1005.1
20260506125027 75 98 5.2 5.2 0.00 0.00 0.00 76 1005.1
20260506124526 75 196 0.0 4.3 0.00 0.00 0.00 76 1005.1
20260506124026 75 70 4.3 4.3 0.00 0.00 0.00 76 1006.1
20260506123526 74 138 0.0 0.0 0.00 0.00 0.00 77 1006.1
20260506123027 72 2 0.0 0.0 0.00 0.00 0.00 78 1006.1
20260506122527 70 143 0.0 0.0 0.00 0.00 0.00 81 1006.1
20260506122026 69 93 0.0 4.3 0.00 0.00 0.00 81 1006.1
20260506121526 69 166 4.3 4.3 0.00 0.00 0.00 81 1006.1
20260506121025 69 180 0.0 6.1 0.00 0.00 0.00 81 1005.1
20260506120527 70 181 6.1 6.1 0.00 0.00 0.00 81 1005.1
20260506120025 70 185 0.0 0.0 0.00 0.00 0.00 81 1005.1
20260506115525 69 107 0.0 5.2 0.00 0.00 0.00 82 1005.1
20260506115026 68 120 5.2 5.2 0.00 0.00 0.00 83 1005.1
20260506114525 68 152 0.0 4.3 0.00 0.00 0.00 84 1005.1
20260506114025 67 129 4.3 4.3 0.00 0.00 0.00 84 1006.1
20260506113525 66 125 4.3 4.3 0.00 0.00 0.00 84 1006.1
20260506113025 66 108 0.0 0.0 0.00 0.00 0.00 85 1006.1
20260506112524 66 112 0.0 0.0 0.00 0.00 0.00 85 1005.1
20260506112024 66 357 0.0 0.0 0.00 0.00 0.00 85 1005.1
20260506111524 66 55 0.0 0.0 0.00 0.00 0.00 87 1005.1
20260506111024 65 55 0.0 0.0 0.00 0.00 0.00 87 1005.1
20260506110023 63 56 0.0 0.0 0.00 0.00 0.00 88 1005.1
20260506105524 62 353 0.0 0.0 0.00 0.00 0.00 89 1006.1
20260506105023 61 353 0.0 0.0 0.00 0.00 0.00 89 1006.1
20260506104524 61 77 0.0 0.0 0.00 0.00 0.00 89 1006.1
20260506104023 60 77 0.0 0.0 0.00 0.00 0.00 89 1005.1
20260506103524 60 77 0.0 0.0 0.00 0.00 0.00 89 1005.1
20260506103023 60 77 0.0 0.0 0.00 0.00 0.00 89 1005.1
20260506102522 59 77 0.0 0.0 0.00 0.00 0.00 88 1005.1
20260506101522 59 77 0.0 0.0 0.00 0.00 0.00 88 1005.1
20260506101022 59 77 0.0 0.0 0.00 0.00 0.00 88 1005.1
20260506100523 59 80 0.0 0.0 0.00 0.00 0.00 88 1005.1
20260506100021 59 80 0.0 0.0 0.00 0.00 0.00 87 1005.1
20260506095521 59 80 0.0 0.0 0.00 0.00 0.00 87 1005.1
20260506095021 59 80 0.0 0.0 0.00 0.00 0.00 87 1005.1
20260506094521 59 80 0.0 0.0 0.00 0.00 0.00 87 1005.1
20260506094021 59 80 0.0 0.0 0.00 0.00 0.00 85 1005.1
20260506093521 59 80 0.0 0.0 0.00 0.00 0.00 85 1005.1
20260506093022 59 80 0.0 0.0 0.00 0.00 0.00 85 1005.1
20260506092521 59 80 0.0 0.0 0.00 0.00 0.00 85 1005.1
20260506092020 59 80 0.0 0.0 0.00 0.00 0.00 85 1005.1
20260506091521 59 80 0.0 0.0 0.00 0.00 0.00 84 1005.1
20260506091020 59 80 0.0 0.0 0.00 0.00 0.00 84 1006.1
20260506090520 59 80 0.0 0.0 0.00 0.00 0.00 84 1006.1
20260506090020 59 80 0.0 0.0 0.00 0.00 0.00 84 1006.1
20260506085521 59 80 0.0 0.0 0.00 0.00 0.00 84 1006.1
20260506085019 59 80 0.0 0.0 0.00 0.00 0.00 84 1006.1
20260506084519 59 80 0.0 0.0 0.00 0.00 0.00 83 1006.1
20260506084019 59 84 0.0 0.0 0.00 0.00 0.00 83 1006.1
20260506083519 59 91 0.0 0.0 0.00 0.00 0.00 83 1006.1
20260506082520 59 91 0.0 0.0 0.00 0.00 0.00 83 1006.1
20260506082018 59 92 0.0 0.0 0.00 0.00 0.00 83 1006.1
20260506081518 59 113 0.0 0.0 0.00 0.00 0.00 83 1006.1
20260506081020 59 113 0.0 0.0 0.00 0.00 0.00 82 1006.1
20260506080519 59 95 0.0 0.0 0.00 0.00 0.00 82 1006.1
20260506073047 59 44 0.0 0.0 0.00 0.00 0.00 82 1006.1
20260506072519 59 197 0.0 0.0 0.00 0.00 0.00 81 1006.1
20260506072017 59 357 0.0 6.1 0.00 0.00 0.00 81 1006.1
20260506071547 59 92 6.1 6.1 0.00 0.00 0.00 81 1006.1
20260506071018 58 260 0.0 0.0 0.00 0.00 0.00 81 1006.1
20260506070546 58 31 0.0 0.0 0.00 0.00 0.00 81 1006.1
20260506062015 58 37 0.0 0.0 0.00 0.00 0.00 78 1006.1
20260506061514 58 37 0.0 0.0 0.00 0.00 0.00 78 1006.1
20260506061016 58 37 0.0 0.0 0.00 0.00 0.00 78 1006.1
20260506060515 58 37 0.0 0.0 0.00 0.00 0.00 78 1006.1
20260506050542 59 139 0.0 0.0 0.00 0.00 0.00 75 1006.1
20260506045043 59 1 0.0 0.0 0.00 0.00 0.00 75 1006.1
20260506044543 59 109 0.0 0.0 0.00 0.00 0.00 73 1006.1
20260506044042 59 109 0.0 0.0 0.00 0.00 0.00 73 1006.1
20260506043511 59 93 0.0 0.0 0.00 0.00 0.00 73 1006.1
20260506043042 60 94 0.0 5.2 0.00 0.00 0.00 73 1006.1
20260506042513 60 113 5.2 5.2 0.00 0.00 0.00 73 1006.1
20260506042011 60 235 0.0 0.0 0.00 0.00 0.00 73 1006.1
20260506041541 60 235 0.0 4.3 0.00 0.00 0.00 73 1006.1
20260506041011 60 126 4.3 4.3 0.00 0.00 0.00 73 1006.1
20260506040541 60 106 0.0 0.0 0.00 0.00 0.00 73 1006.1
20260506034541 60 85 0.0 0.0 0.00 0.00 0.00 72 1006.1
20260506034040 60 174 0.0 0.0 0.00 0.00 0.00 71 1006.1
20260506033539 60 91 0.0 0.0 0.00 0.00 0.00 71 1006.1
20260506033039 60 81 0.0 0.0 0.00 0.00 0.00 71 1006.1
20260506032540 60 48 0.0 0.0 0.00 0.00 0.00 71 1006.1
20260506032041 60 273 0.0 4.3 0.00 0.00 0.00 70 1006.1
20260506031539 60 21 4.3 4.3 0.00 0.00 0.00 70 1006.1
20260506031038 60 77 0.0 0.0 0.00 0.00 0.00 70 1006.1
20260506025539 61 18 0.0 4.3 0.00 0.00 0.00 69 1006.1
20260506025039 61 341 4.3 4.3 0.00 0.00 0.00 69 1006.1
20260506024538 61 60 0.0 0.0 0.00 0.00 0.00 67 1006.1
20260506023538 61 248 0.0 0.0 0.00 0.00 0.00 67 1006.1
20260506023037 61 51 0.0 4.3 0.00 0.00 0.00 67 1006.1
20260506022537 61 83 4.3 4.3 0.00 0.00 0.00 67 1006.1
20260506022037 61 270 4.3 4.3 0.00 0.00 0.00 66 1006.1
20260506021538 61 42 0.0 0.0 0.00 0.00 0.00 66 1006.1
20260506021037 61 83 0.0 4.3 0.00 0.00 0.00 66 1006.1
20260506020537 61 81 4.3 4.3 0.00 0.00 0.00 66 1006.1
20260506020037 61 92 0.0 0.0 0.00 0.00 0.00 66 1006.1
20260506015536 61 119 0.0 0.0 0.00 0.00 0.00 66 1006.1
20260506015036 61 145 0.0 0.0 0.00 0.00 0.00 65 1006.1
20260506014537 61 87 0.0 7.0 0.00 0.00 0.00 65 1006.1
20260506014036 61 333 7.0 7.0 0.00 0.00 0.00 65 1006.1
20260506013535 61 321 0.0 0.0 0.00 0.00 0.00 65 1006.1
20260506013036 61 0 0.0 8.7 0.00 0.00 0.00 65 1006.1
20260506012036 61 25 5.2 5.2 0.00 0.00 0.00 64 1005.1
20260506011035 61 60 5.2 5.2 0.00 0.00 0.00 64 1005.1
20260506010535 62 59 0.0 9.6 0.00 0.00 0.00 64 1005.1
20260506010036 62 36 9.6 9.6 0.00 0.00 0.00 64 1005.1
20260506005535 62 54 7.0 7.0 0.00 0.00 0.00 63 1005.1
20260506005036 62 51 5.2 9.6 0.00 0.00 0.00 63 1005.1
20260506004534 62 109 9.6 9.6 0.00 0.00 0.00 63 1005.1
20260506003534 62 49 0.0 0.0 0.00 0.00 0.00 63 1005.1
20260506003034 62 252 0.0 0.0 0.00 0.00 0.00 61 1005.1
20260506002034 63 108 4.3 4.3 0.00 0.00 0.00 61 1004.1
20260506001534 63 16 0.0 0.0 0.00 0.00 0.00 61 1004.1
20260506001034 63 54 0.0 0.0 0.00 0.00 0.00 60 1004.1
20260506000533 63 206 0.0 0.0 0.00 0.00 0.00 60 1004.1
20260506000034 63 253 0.0 0.0 0.00 0.00 0.00 60 1004.1
20260505235533 63 45 0.0 4.3 0.00 0.00 0.00 60 1004.1
20260505235033 63 25 4.3 8.7 0.00 0.00 0.00 60 1004.1
20260505234532 64 32 8.7 8.7 0.00 0.00 0.00 60 1004.1
20260505234033 64 99 0.0 0.0 0.00 0.00 0.00 60 1004.1
20260505233532 64 342 0.0 4.3 0.00 0.00 0.00 60 1004.1
20260505233033 64 302 4.3 4.3 0.00 0.00 0.00 59 1004.1
20260505232531 65 104 0.0 0.0 0.00 0.00 0.00 59 1004.1
20260505232031 65 53 0.0 0.0 0.00 0.00 0.00 59 1004.1
20260505231531 66 160 0.0 0.0 0.00 0.00 0.00 59 1004.1
20260505231031 66 280 0.0 0.0 0.00 0.00 0.00 59 1004.1
20260505230531 66 178 0.0 0.0 0.00 0.00 0.00 59 1004.1
20260505230032 66 173 0.0 0.0 0.00 0.00 0.00 58 1004.1
20260505225032 67 146 0.0 0.0 0.00 0.00 0.00 58 1004.1
20260505224030 67 106 0.0 0.0 0.00 0.00 0.00 58 1004.1
20260505223531 68 164 0.0 0.0 0.00 0.00 0.00 58 1004.1
20260505223030 68 167 0.0 0.0 0.00 0.00 0.00 58 1004.1
20260505222532 68 129 0.0 0.0 0.00 0.00 0.00 58 1004.1
20260505222030 68 118 0.0 4.3 0.00 0.00 0.00 58 1004.1
20260505221530 68 267 4.3 4.3 0.00 0.00 0.00 58 1004.1
20260505220529 68 179 0.0 7.0 0.00 0.00 0.00 57 1004.1
20260505220029 69 106 7.0 7.0 0.00 0.00 0.00 57 1004.1
20260505215029 69 61 4.3 4.3 0.00 0.00 0.00 57 1004.1
20260505214529 69 133 0.0 4.3 0.00 0.00 0.00 58 1004.1
20260505213529 69 143 0.0 0.0 0.00 0.00 0.00 58 1004.1
20260505213028 69 182 0.0 4.3 0.00 0.00 0.00 58 1004.1
20260505212530 69 130 4.3 4.3 0.00 0.00 0.00 58 1004.1
20260505212028 69 152 0.0 0.0 0.00 0.00 0.00 57 1004.1